FW7166 Weather Reports


Display with metric or nautical units.
time (UTC)temp
F
wind
direction
speed
MPH
gust
MPH
rain 1hr
in
rain 24hr
in
rain mn
in
humidity
%
barometer
mb
20260505160416 56 276 1.0 12.0 0.00 0.00 0.00 27 1012.2
20260505152914 57 215 2.0 12.0 0.00 0.00 0.00 25 1012.0
20260505152414 57 241 2.0 12.0 0.00 0.00 0.00 24 1012.3
20260505151914 57 241 2.0 12.0 0.00 0.00 0.00 23 1012.0
20260505150856 57 236 2.0 12.0 0.00 0.00 0.00 22 1012.3
20260505150357 57 241 3.0 12.0 0.00 0.00 0.00 22 1012.2
20260505140307 58 260 2.0 12.0 0.00 0.00 0.00 23 1011.9
20260505130231 58 200 1.0 11.0 0.00 0.00 0.00 26 1011.8
20260505124715 57 241 2.0 11.0 0.00 0.00 0.00 28 1012.0
20260505124214 57 228 2.0 11.0 0.00 0.00 0.00 26 1011.9
20260505123715 57 269 2.0 11.0 0.00 0.00 0.00 27 1011.8
20260505123214 57 222 1.0 11.0 0.00 0.00 0.00 26 1012.0
20260505122714 57 229 4.0 11.0 0.00 0.00 0.00 23 1012.2
20260505122214 57 259 3.0 11.0 0.00 0.00 0.00 24 1012.1
20260505121713 57 243 2.0 11.0 0.00 0.00 0.00 25 1011.8
20260505121212 57 242 4.0 11.0 0.00 0.00 0.00 22 1012.0
20260505120711 57 239 2.0 11.0 0.00 0.00 0.00 26 1012.0
20260505120211 57 333 1.0 11.0 0.00 0.00 0.00 26 1011.9
20260505115711 56 249 3.0 11.0 0.00 0.00 0.00 25 1012.1
20260505114140 56 302 2.0 11.0 0.00 0.00 0.00 26 1012.0
20260505113639 57 273 2.0 11.0 0.00 0.00 0.00 26 1012.1
20260505113138 56 244 1.0 11.0 0.00 0.00 0.00 26 1012.0
20260505112122 56 256 3.0 11.0 0.00 0.00 0.00 24 1011.7
20260505111106 55 299 2.0 11.0 0.00 0.00 0.00 27 1012.0
20260505100945 54 302 4.0 11.0 0.00 0.00 0.00 27 1012.4
20260505100445 54 260 2.0 11.0 0.00 0.00 0.00 29 1012.0
20260505095944 54 277 1.0 11.0 0.00 0.00 0.00 29 1012.1
20260505095444 54 272 2.0 11.0 0.00 0.00 0.00 28 1012.4
20260505094943 54 247 3.0 11.0 0.00 0.00 0.00 28 1012.3
20260505094442 54 247 3.0 11.0 0.00 0.00 0.00 28 1011.9
20260505093427 53 245 2.0 11.0 0.00 0.00 0.00 29 1012.3
20260505092927 53 229 4.0 11.0 0.00 0.00 0.00 31 1012.5
20260505091911 53 262 2.0 11.0 0.00 0.00 0.00 37 1012.4
20260505091411 53 243 1.0 11.0 0.00 0.00 0.00 35 1012.0
20260505090910 53 294 2.0 11.0 0.00 0.00 0.00 32 1011.7
20260505090410 54 273 1.0 11.0 0.00 0.00 0.00 34 1012.1
20260505085910 53 249 1.0 11.0 0.00 0.00 0.00 41 1011.7
20260505085410 53 262 2.0 11.0 0.00 0.00 0.00 37 1012.3
20260505084910 53 239 2.0 11.0 0.00 0.00 0.00 35 1012.0
20260505083853 53 236 2.0 11.0 0.00 0.00 0.00 40 1011.7
20260505082322 51 269 2.0 11.0 0.00 0.00 0.00 43 1011.9
20260505081822 51 252 2.0 11.0 0.00 0.00 0.00 45 1012.0
20260505080806 51 247 3.0 11.0 0.00 0.00 0.00 45 1011.7
20260505080305 51 249 1.0 11.0 0.00 0.00 0.00 47 1011.9
20260505075804 51 244 2.0 11.0 0.00 0.00 0.00 49 1011.7
20260505074232 50 230 3.0 11.0 0.00 0.00 0.00 50 1011.7
20260505073731 50 273 2.0 11.0 0.00 0.00 0.00 53 1011.9
20260505073231 50 204 1.0 11.0 0.00 0.00 0.00 56 1012.1
20260505072730 49 230 1.0 11.0 0.00 0.00 0.00 57 1011.6
20260505072229 49 225 3.0 11.0 0.00 0.00 0.00 55 1011.7
20260505071729 49 230 2.0 11.0 0.00 0.00 0.00 56 1012.0
20260505071229 49 220 2.0 11.0 0.00 0.00 0.00 58 1011.9
20260505070728 49 235 1.0 11.0 0.00 0.00 0.00 59 1011.5
20260505070228 49 150 2.0 11.0 0.00 0.00 0.00 60 1012.1
20260505065728 49 295 1.0 11.0 0.00 0.00 0.00 59 1011.7
20260505065227 48 284 2.0 11.0 0.00 0.00 0.00 61 1011.8
20260505064726 48 242 2.0 11.0 0.00 0.00 0.00 59 1011.8
20260505064226 48 234 3.0 11.0 0.00 0.00 0.00 62 1011.8
20260505063726 48 247 2.0 11.0 0.00 0.00 0.00 63 1011.7
20260505063225 47 224 3.0 11.0 0.00 0.00 0.00 63 1011.8
20260505062209 47 223 3.0 11.0 0.00 0.00 0.00 68 1011.7
20260505061709 48 297 1.0 11.0 0.00 0.00 0.00 70 1011.8
20260505061209 48 267 2.0 11.0 0.00 0.00 0.00 70 1011.7
20260505060709 47 250 2.0 11.0 0.00 0.00 0.00 71 1011.6
20260505060208 47 254 1.0 11.0 0.00 0.00 0.00 72 1011.7
20260505055708 47 242 1.0 11.0 0.00 0.00 0.00 72 1011.6
20260505055207 47 229 1.0 11.0 0.00 0.00 0.00 73 1011.5
20260505054707 47 257 0.0 11.0 0.00 0.00 0.00 79 1011.6
20260505054206 46 237 2.0 11.0 0.00 0.00 0.00 78 1011.4
20260505053705 46 200 2.0 11.0 0.00 0.00 0.00 80 1011.7
20260505053205 46 226 2.0 11.0 0.00 0.00 0.00 81 1011.5
20260505052704 46 221 1.0 11.0 0.00 0.00 0.00 81 1011.5
20260505052203 46 198 1.0 11.0 0.00 0.00 0.00 82 1011.6
20260505051703 45 199 2.0 11.0 0.00 0.00 0.00 81 1011.6
20260505051202 45 233 1.0 11.0 0.00 0.00 0.00 82 1011.5
20260505050701 45 205 2.0 11.0 0.00 0.00 0.00 82 1011.6
20260505050200 45 204 2.0 11.0 0.00 0.00 0.00 82 1011.1
20260505041639 45 233 1.0 11.0 0.00 0.00 0.00 86 1011.5
20260505041139 45 217 0.0 11.0 0.00 0.00 0.00 86 1011.2
20260505040638 44 217 1.0 11.0 0.00 0.00 0.00 86 1011.3
20260505035623 44 215 0.0 11.0 0.00 0.00 0.00 86 1011.4
20260505035122 44 220 1.0 11.0 0.00 0.00 0.00 86 1011.3
20260505034622 45 203 1.0 11.0 0.00 0.00 0.00 86 1011.0
20260505033050 44 204 1.0 11.0 0.00 0.00 0.00 86 1011.5
20260505032550 45 206 0.0 11.0 0.00 0.00 0.00 86 1011.3
20260505032050 44 194 1.0 11.0 0.00 0.00 0.00 86 1011.4
20260505031550 44 212 1.0 11.0 0.00 0.00 0.00 86 1011.2
20260505030534 44 190 0.0 11.0 0.00 0.00 0.00 86 1011.7
20260505030034 44 170 1.0 11.0 0.00 0.00 0.00 86 1011.5
20260505025534 44 229 1.0 11.0 0.00 0.00 0.00 86 1011.2
20260505025034 44 207 2.0 11.0 0.00 0.00 0.00 86 1011.6
20260505024534 44 224 1.0 11.0 0.00 0.00 0.00 86 1011.3
20260505022448 44 222 2.0 11.0 0.00 0.00 0.00 86 1011.4
20260505021947 44 204 2.0 11.0 0.00 0.00 0.00 86 1011.8
20260505021447 44 194 0.0 11.0 0.00 0.00 0.00 86 1011.8
20260505020947 44 218 3.0 11.0 0.00 0.00 0.00 86 1011.5
20260505020446 44 200 2.0 11.0 0.00 0.00 0.00 87 1011.3
20260505015945 44 217 2.0 11.0 0.00 0.00 0.00 86 1011.6
20260505015445 44 224 1.0 11.0 0.00 0.00 0.00 87 1011.6
20260505014945 44 202 1.0 11.0 0.00 0.00 0.00 87 1011.9
20260505014445 44 190 2.0 11.0 0.00 0.00 0.00 87 1011.8
20260505013945 44 161 2.0 11.0 0.00 0.00 0.00 86 1011.9
20260505013445 44 218 2.0 11.0 0.00 0.00 0.00 87 1011.7
20260505011913 44 189 1.0 11.0 0.00 0.00 0.00 86 1011.8
20260505010858 44 244 1.0 11.0 0.00 0.00 0.00 86 1011.4
20260505010357 44 216 1.0 11.0 0.00 0.00 0.00 86 1011.7
20260505005342 44 212 1.0 11.0 0.00 0.00 0.00 85 1011.6
20260505004842 44 211 1.0 11.0 0.00 0.00 0.00 85 1011.5
20260505004341 44 211 2.0 11.0 0.00 0.00 0.00 84 1011.6
20260505003841 44 215 1.0 11.0 0.00 0.00 0.00 84 1011.6
20260505003340 45 227 1.0 11.0 0.00 0.00 0.00 83 1011.9
20260505002325 45 216 2.0 11.0 0.00 0.00 0.00 83 1011.7
20260505001825 45 213 2.0 11.0 0.00 0.00 0.00 82 1012.0
20260505001325 45 199 1.0 11.0 0.00 0.00 0.00 82 1011.7
20260505000825 45 218 2.0 11.0 0.00 0.00 0.00 83 1012.1
20260504235809 45 229 2.0 11.0 0.00 0.00 0.00 83 1011.6
20260504235308 45 195 2.0 11.0 0.00 0.00 0.00 83 1011.6
20260504234253 45 207 1.0 11.0 0.00 0.00 0.00 83 1012.1
20260504233752 45 177 1.0 11.0 0.00 0.00 0.00 83 1012.1
20260504233252 45 211 2.0 11.0 0.00 0.00 0.00 83 1011.9
20260504232752 45 211 2.0 11.0 0.00 0.00 0.00 83 1011.6
20260504232252 45 221 1.0 11.0 0.00 0.00 0.00 83 1012.2
20260504231751 45 213 2.0 11.0 0.00 0.00 0.00 82 1011.7
20260504231250 45 213 2.0 11.0 0.00 0.00 0.00 83 1011.9
20260504230750 45 194 1.0 11.0 0.00 0.00 0.00 83 1012.2
20260504230250 45 206 3.0 11.0 0.00 0.00 0.00 83 1012.0
20260504225749 45 209 2.0 11.0 0.00 0.00 0.00 83 1011.7
20260504225248 45 196 2.0 11.0 0.00 0.00 0.00 83 1012.3
20260504224748 45 196 2.0 11.0 0.00 0.00 0.00 83 1012.0
20260504224248 45 178 2.0 11.0 0.00 0.00 0.00 83 1012.3
20260504223748 45 225 1.0 11.0 0.00 0.00 0.00 83 1012.2
20260504223247 45 206 2.0 11.0 0.00 0.00 0.00 83 1012.1
20260504222747 45 227 2.0 11.0 0.00 0.00 0.00 83 1012.0
20260504222247 46 219 2.0 11.0 0.00 0.00 0.00 83 1012.2
20260504221747 46 236 1.0 11.0 0.00 0.00 0.00 83 1011.9
20260504221247 46 225 2.0 11.0 0.00 0.00 0.00 83 1012.1
20260504220746 46 223 1.0 11.0 0.00 0.00 0.00 83 1012.0
20260504220245 46 226 2.0 11.0 0.00 0.00 0.00 83 1012.0
20260504215745 46 231 2.0 11.0 0.00 0.00 0.10 83 1012.1
20260504215245 46 207 2.0 11.0 0.00 0.00 0.10 83 1012.4
20260504214745 45 195 3.0 11.0 0.00 0.00 0.10 83 1012.3
20260504214245 46 181 1.0 11.0 0.00 0.00 0.10 83 1012.0
20260504213744 46 197 2.0 11.0 0.00 0.00 0.10 82 1012.6
20260504213243 46 209 1.0 11.0 0.00 0.00 0.10 82 1011.8
20260504212227 46 212 0.0 11.0 0.00 0.00 0.10 81 1011.9
20260504211726 46 219 2.0 11.0 0.00 0.00 0.10 81 1011.9
20260504211226 46 215 1.0 11.0 0.00 0.00 0.10 80 1012.4
20260504210726 46 234 2.0 11.0 0.00 0.00 0.10 80 1012.0
20260504210226 47 206 2.0 11.0 0.00 0.00 0.10 79 1012.0
20260504205726 47 214 1.0 11.0 0.00 0.00 0.10 79 1011.8
20260504205226 47 167 1.0 11.0 0.00 0.00 0.10 78 1012.2
20260504204725 47 216 2.0 11.0 0.00 0.00 0.10 78 1012.2
20260504204224 47 224 2.0 11.0 0.00 0.00 0.10 77 1011.8
20260504203724 47 230 1.0 11.0 0.00 0.00 0.10 76 1012.0
20260504203224 48 229 2.0 11.0 0.00 0.00 0.10 76 1012.1
20260504202723 48 201 3.0 11.0 0.00 0.00 0.10 75 1012.2
20260504202223 48 229 2.0 11.0 0.00 0.00 0.10 74 1011.9
20260504201723 48 210 1.0 11.0 0.00 0.00 0.10 73 1012.2
20260504201222 48 232 3.0 11.0 0.00 0.00 0.10 72 1012.0
20260504200722 48 235 2.0 11.0 0.00 0.00 0.10 71 1011.6
20260504200222 48 216 2.0 11.0 0.00 0.00 0.10 68 1011.9
20260504195721 48 190 1.0 11.0 0.00 0.00 0.10 67 1011.7
20260504194706 49 205 2.0 11.0 0.00 0.00 0.10 64 1011.5
20260504194205 49 230 2.0 11.0 0.00 0.00 0.10 63 1011.8
20260504193148 49 234 1.0 11.0 0.00 0.00 0.10 62 1011.4
20260504192648 49 227 1.0 11.0 0.00 0.00 0.10 61 1011.7
20260504192147 50 247 0.0 11.0 0.00 0.00 0.10 60 1011.9
20260504191645 50 195 1.0 11.0 0.00 0.00 0.10 59 1011.4
20260504190629 50 177 1.0 11.0 0.00 0.00 0.10 58 1011.8
20260504190129 51 185 1.0 11.0 0.00 0.00 0.10 58 1011.8
20260504185629 51 208 1.0 11.0 0.00 0.00 0.10 57 1011.7
20260504185129 51 179 1.0 11.0 0.00 0.00 0.10 56 1011.6
20260504184113 52 201 1.0 11.0 0.00 0.00 0.10 53 1011.3
20260504183613 52 195 2.0 11.0 0.00 0.00 0.10 52 1011.4
20260504183112 52 218 2.0 11.0 0.00 0.00 0.10 51 1011.5
20260504182612 52 200 2.0 11.0 0.00 0.00 0.10 51 1011.6
20260504182112 53 223 1.0 11.0 0.00 0.00 0.10 50 1011.1
20260504181612 53 232 2.0 11.0 0.00 0.00 0.10 50 1011.3
20260504180556 54 229 1.0 11.0 0.00 0.00 0.10 49 1011.0
20260504175024 55 216 1.0 11.0 0.00 0.00 0.10 51 1011.1
20260504174523 55 191 1.0 11.0 0.00 0.00 0.10 51 1011.1
20260504174022 55 224 3.0 11.0 0.00 0.00 0.10 50 1011.0
20260504173006 55 228 1.0 11.0 0.00 0.00 0.10 46 1010.9
20260504172506 55 234 3.0 11.0 0.00 0.00 0.10 45 1010.9
20260504172006 56 237 2.0 11.0 0.00 0.00 0.10 44 1010.9
20260504171506 56 213 2.0 11.0 0.00 0.00 0.10 43 1010.8
20260504171005 56 234 2.0 11.0 0.00 0.00 0.10 43 1010.7
20260504170504 56 233 3.0 11.0 0.00 0.00 0.10 41 1011.1